Time,TemperatureF,DewpointF,PressureIn,WindDirection,WindDirectionDegrees,WindSpeedMPH,WindSpeedGustMPH,Humidity,HourlyPrecipIn,Conditions,Clouds,dailyrainin,SoftwareType,DateUTC
2013-12-25 00:04:00,22.4,16.0,30.43,SE,136,0.0,-999.0,75,-99.99,,,0.00,weatherlink.com 1.10,2013-12-25 06:04:00,
2013-12-25 00:19:00,22.2,16.0,30.42,SE,139,0.0,-999.0,76,-99.99,,,0.00,weatherlink.com 1.10,2013-12-25 06:19:00,
2013-12-25 00:34:00,22.2,16.0,30.42,SE,140,0.0,-999.0,76,-99.99,,,0.00,weatherlink.com 1.10,2013-12-25 06:34:00,
2013-12-25 00:49:00,22.0,16.0,30.42,SE,140,0.0,-999.0,77,-99.99,,,0.00,weatherlink.com 1.10,2013-12-25 06:49:00,
2013-12-25 01:04:00,21.8,16.0,30.41,SE,140,0.0,-999.0,77,-99.99,,,0.00,weatherlink.com 1.10,2013-12-25 07:04:00,
2013-12-25 01:19:00,21.8,16.0,30.41,SE,140,0.0,-999.0,78,-99.99,,,0.00,weatherlink.com 1.10,2013-12-25 07:19:00,
2013-12-25 01:34:00,22.0,16.0,30.41,SE,136,0.0,-999.0,77,-99.99,,,0.00,weatherlink.com 1.10,2013-12-25 07:34:00,
2013-12-25 01:49:00,22.1,16.0,30.40,SE,136,0.0,-999.0,77,-99.99,,,0.00,weatherlink.com 1.10,2013-12-25 07:49:00,
2013-12-25 02:04:00,22.1,16.0,30.40,SE,136,0.0,-999.0,77,-99.99,,,0.00,weatherlink.com 1.10,2013-12-25 08:04:00,
2013-12-25 02:19:00,22.2,16.0,30.41,SE,136,0.0,-999.0,77,-99.99,,,0.00,weatherlink.com 1.10,2013-12-25 08:19:00,
2013-12-25 02:34:00,22.1,16.0,30.41,SE,136,0.0,-999.0,77,-99.99,,,0.00,weatherlink.com 1.10,2013-12-25 08:34:00,
2013-12-25 02:49:00,21.6,16.0,30.42,SE,136,0.0,-999.0,78,-99.99,,,0.00,weatherlink.com 1.10,2013-12-25 08:49:00,
2013-12-25 03:04:00,21.2,16.0,30.41,SE,136,0.0,-999.0,79,-99.99,,,0.00,weatherlink.com 1.10,2013-12-25 09:04:00,
2013-12-25 03:19:00,21.3,16.0,30.41,SE,136,0.0,-999.0,81,-99.99,,,0.00,weatherlink.com 1.10,2013-12-25 09:19:00,
2013-12-25 03:34:00,21.2,16.0,30.41,SE,136,0.0,-999.0,80,-99.99,,,0.00,weatherlink.com 1.10,2013-12-25 09:34:00,
2013-12-25 03:49:00,20.7,16.0,30.41,SE,136,0.0,-999.0,81,-99.99,,,0.00,weatherlink.com 1.10,2013-12-25 09:49:00,
2013-12-25 04:04:00,20.3,16.0,30.42,SE,136,0.0,-999.0,82,-99.99,,,0.00,weatherlink.com 1.10,2013-12-25 10:04:00,
2013-12-25 04:19:00,20.3,16.0,30.42,SE,136,0.0,-999.0,82,-99.99,,,0.00,weatherlink.com 1.10,2013-12-25 10:19:00,
2013-12-25 04:34:00,20.5,16.0,30.41,SE,136,0.0,-999.0,82,-99.99,,,0.00,weatherlink.com 1.10,2013-12-25 10:34:00,
2013-12-25 04:49:00,20.4,16.0,30.42,SE,136,0.0,-999.0,82,-99.99,,,0.00,weatherlink.com 1.10,2013-12-25 10:49:00,
2013-12-25 05:04:00,20.0,16.0,30.42,SE,136,0.0,-999.0,84,-99.99,,,0.00,weatherlink.com 1.10,2013-12-25 11:04:00,
2013-12-25 05:19:00,19.9,16.0,30.42,SE,136,0.0,-999.0,85,-99.99,,,0.00,weatherlink.com 1.10,2013-12-25 11:19:00,
2013-12-25 05:34:00,19.9,16.0,30.42,SE,136,0.0,-999.0,86,-99.99,,,0.00,weatherlink.com 1.10,2013-12-25 11:34:00,
2013-12-25 05:49:00,20.1,17.0,30.42,SE,136,0.0,-999.0,86,-99.99,,,0.00,weatherlink.com 1.10,2013-12-25 11:49:00,
2013-12-25 06:04:00,20.4,17.0,30.41,SE,136,0.0,-999.0,85,-99.99,,,0.00,weatherlink.com 1.10,2013-12-25 12:04:00,
2013-12-25 06:19:00,20.9,17.0,30.41,SE,136,0.0,-999.0,84,-99.99,,,0.00,weatherlink.com 1.10,2013-12-25 12:19:00,
2013-12-25 06:34:00,21.2,17.0,30.41,SE,142,0.0,-999.0,82,-99.99,,,0.00,weatherlink.com 1.10,2013-12-25 12:34:00,
2013-12-25 06:49:00,21.5,17.0,30.41,SSE,152,0.0,-999.0,81,-99.99,,,0.00,weatherlink.com 1.10,2013-12-25 12:49:00,
2013-12-25 07:04:00,21.6,17.0,30.41,SSE,158,0.0,-999.0,81,-99.99,,,0.00,weatherlink.com 1.10,2013-12-25 13:04:00,
2013-12-25 07:19:00,22.0,17.0,30.41,SSE,161,0.0,-999.0,80,-99.99,,,0.00,weatherlink.com 1.10,2013-12-25 13:19:00,
2013-12-25 07:34:00,22.9,17.0,30.41,SSE,165,2.0,-999.0,78,-99.99,,,0.00,weatherlink.com 1.10,2013-12-25 13:34:00,
2013-12-25 07:49:00,24.2,18.0,30.40,SSE,167,2.0,-999.0,78,-99.99,,,0.00,weatherlink.com 1.10,2013-12-25 13:49:00,
2013-12-25 08:04:00,24.7,18.0,30.40,SSE,165,0.0,-999.0,77,-99.99,,,0.00,weatherlink.com 1.10,2013-12-25 14:04:00,
2013-12-25 08:19:00,25.7,19.0,30.40,South,170,2.0,-999.0,76,-99.99,,,0.00,weatherlink.com 1.10,2013-12-25 14:19:00,
2013-12-25 08:34:00,27.1,20.0,30.40,South,169,5.0,-999.0,73,-99.99,,,0.00,weatherlink.com 1.10,2013-12-25 14:34:00,
2013-12-25 08:49:00,28.5,21.0,30.40,South,173,4.0,-999.0,72,-99.99,,,0.00,weatherlink.com 1.10,2013-12-25 14:49:00,
2013-12-25 09:04:00,30.0,21.0,30.39,SSE,163,3.0,-999.0,70,-99.99,,,0.00,weatherlink.com 1.10,2013-12-25 15:04:00,
2013-12-25 09:19:00,30.9,23.0,30.40,SSE,165,4.0,-999.0,72,-99.99,,,0.00,weatherlink.com 1.10,2013-12-25 15:19:00,
2013-12-25 09:34:00,31.6,21.0,30.40,South,173,4.0,-999.0,66,-99.99,,,0.00,weatherlink.com 1.10,2013-12-25 15:34:00,
2013-12-25 09:49:00,32.3,22.0,30.40,South,169,2.0,-999.0,65,-99.99,,,0.00,weatherlink.com 1.10,2013-12-25 15:49:00,
2013-12-25 10:04:00,33.0,22.0,30.40,SSE,159,5.0,-999.0,65,-99.99,,,0.00,weatherlink.com 1.10,2013-12-25 16:04:00,
2013-12-25 10:19:00,33.9,23.0,30.39,SSW,196,5.0,-999.0,64,-99.99,,,0.00,weatherlink.com 1.10,2013-12-25 16:19:00,
2013-12-25 10:34:00,34.4,24.0,30.39,SSE,153,5.0,-999.0,65,-99.99,,,0.00,weatherlink.com 1.10,2013-12-25 16:34:00,
2013-12-25 10:48:00,35.2,24.0,30.38,South,187,5.0,-999.0,65,-99.99,,,0.00,weatherlink.com 1.10,2013-12-25 16:48:00,
2013-12-25 11:04:00,35.7,24.0,30.38,South,186,9.0,-999.0,62,-99.99,,,0.00,weatherlink.com 1.10,2013-12-25 17:04:00,
2013-12-25 11:19:00,36.2,24.0,30.37,SW,222,2.0,-999.0,62,-99.99,,,0.00,weatherlink.com 1.10,2013-12-25 17:19:00,
2013-12-25 11:34:00,37.2,26.0,30.36,SW,214,5.0,-999.0,63,-99.99,,,0.00,weatherlink.com 1.10,2013-12-25 17:34:00,
2013-12-25 11:49:00,38.1,26.0,30.36,South,184,5.0,-999.0,61,-99.99,,,0.00,weatherlink.com 1.10,2013-12-25 17:49:00,
2013-12-25 12:04:00,39.0,26.0,30.34,WSW,240,9.0,-999.0,60,-99.99,,,0.00,weatherlink.com 1.10,2013-12-25 18:04:00,
2013-12-25 12:19:00,39.4,26.0,30.33,West,260,4.0,-999.0,60,-99.99,,,0.00,weatherlink.com 1.10,2013-12-25 18:19:00,
2013-12-25 12:34:00,39.3,26.0,30.32,SSW,202,4.0,-999.0,60,-99.99,,,0.00,weatherlink.com 1.10,2013-12-25 18:34:00,
2013-12-25 12:49:00,39.9,26.0,30.32,SW,224,5.0,-999.0,59,-99.99,,,0.00,weatherlink.com 1.10,2013-12-25 18:49:00,
2013-12-25 13:04:00,40.4,27.0,30.31,SSW,202,4.0,-999.0,60,-99.99,,,0.00,weatherlink.com 1.10,2013-12-25 19:04:00,
2013-12-25 13:19:00,40.4,27.0,30.30,SSW,199,7.0,-999.0,59,-99.99,,,0.00,weatherlink.com 1.10,2013-12-25 19:19:00,
2013-12-25 13:34:00,40.9,28.0,30.30,SW,221,9.0,-999.0,60,-99.99,,,0.00,weatherlink.com 1.10,2013-12-25 19:34:00,
2013-12-25 13:49:00,41.1,28.0,30.30,SW,229,0.0,-999.0,60,-99.99,,,0.00,weatherlink.com 1.10,2013-12-25 19:49:00,
2013-12-25 14:04:00,41.3,28.0,30.29,SSW,196,1.0,-999.0,59,-99.99,,,0.00,weatherlink.com 1.10,2013-12-25 20:04:00,
2013-12-25 14:19:00,41.9,29.0,30.28,SW,223,4.0,-999.0,60,-99.99,,,0.00,weatherlink.com 1.10,2013-12-25 20:19:00,
2013-12-25 14:34:00,41.9,29.0,30.28,SSW,211,10.0,-999.0,61,-99.99,,,0.00,weatherlink.com 1.10,2013-12-25 20:34:00,
2013-12-25 14:49:00,42.0,28.0,30.29,SW,232,4.0,-999.0,59,-99.99,,,0.00,weatherlink.com 1.10,2013-12-25 20:49:00,
2013-12-25 15:04:00,41.9,28.0,30.28,West,276,1.0,-999.0,59,-99.99,,,0.00,weatherlink.com 1.10,2013-12-25 21:04:00,
2013-12-25 15:19:00,41.5,28.0,30.29,SW,214,2.0,-999.0,60,-99.99,,,0.00,weatherlink.com 1.10,2013-12-25 21:19:00,
2013-12-25 15:34:00,41.6,29.0,30.28,SSW,198,3.0,-999.0,61,-99.99,,,0.00,weatherlink.com 1.10,2013-12-25 21:34:00,
2013-12-25 15:49:00,41.4,29.0,30.28,SSE,156,9.0,-999.0,62,-99.99,,,0.00,weatherlink.com 1.10,2013-12-25 21:49:00,
2013-12-25 16:04:00,41.3,29.0,30.28,South,191,0.0,-999.0,62,-99.99,,,0.00,weatherlink.com 1.10,2013-12-25 22:04:00,
2013-12-25 16:19:00,41.1,29.0,30.29,SSW,210,0.0,-999.0,63,-99.99,,,0.00,weatherlink.com 1.10,2013-12-25 22:19:00,
2013-12-25 16:34:00,40.9,29.0,30.29,SSW,210,0.0,-999.0,64,-99.99,,,0.00,weatherlink.com 1.10,2013-12-25 22:34:00,
2013-12-25 16:49:00,40.7,29.0,30.29,South,191,1.0,-999.0,64,-99.99,,,0.00,weatherlink.com 1.10,2013-12-25 22:49:00,
2013-12-25 17:04:00,40.3,29.0,30.29,SSW,201,0.0,-999.0,65,-99.99,,,0.00,weatherlink.com 1.10,2013-12-25 23:04:00,